Hourly Weather Roundup
Issued by NWS Central Illinois

Home | Current Version | Previous Version | Text Only | Print | Product List | Glossary On
Versions: 1 2 3 4 5 6 7 8 9 10 11 12 13 14 15 16 17 18 19 20 21 22 23 24 25 26 27 28 29 30 31 32 33 34 35 36 37 38 39 40 41 42 43 44 45 46 47 48 49 50
000
NZUS43 KILX 271010
HWRILX

AREA WEATHER ROUNDUP
NATIONAL WEATHER SERVICE, LINCOLN IL
500 AM CDT FRI MAY 27 2016


CITY           SKY/WX    TMP DP  RH WIND       PRES   REMARKS
BLOOMINGTON    CLOUDY    67  67 100 S7        29.92S
CHAMPAIGN      CLOUDY    65  62  90 SE10      29.93F
DANVILLE       CLOUDY    65  63  94 S6        29.93S
DECATUR        CLOUDY    67  63  87 SE6       29.91F
EFFINGHAM      CLOUDY    65  65 100 E6        29.96F
FLORA          CLOUDY    66  64  93 E3        29.95S
GALESBURG      PTCLDY    62  61  96 SE3       29.83S
JACKSONVILLE   CLOUDY    67  65  94 CALM      29.86F
LACON          CLOUDY    68  61  78 CALM      29.86F
LAWRENCEVILLE  CLOUDY    66  64  93 SE5       29.97R
LITCHFIELD     LGT RAIN  65  63  91 SE8       29.91R
$$


CITY           SKY/WX    TMP DP  RH WIND       PRES   REMARKS
LINCOLN        CLOUDY    67  66  96 CALM      29.88F
MACOMB         CLOUDY    64  63  97 SE9       29.88R
MATTOON        CLOUDY    66  62  87 S7        29.93F
MT CARMEL AP   CLOUDY    65  63  92 E3        29.97R
OLNEY-NOBLE AP CLOUDY    64  63  94 CALM      29.96S
PARIS          LGT RAIN  65  64  96 S6        29.97S
PEORIA         CLOUDY    67  61  81 CALM      29.87F
PONTIAC        CLOUDY    68  66  92 SE6       29.90F
RANTOUL        MOCLDY    67  65  93 SE6       29.93F
ROBINSON       CLOUDY    64  63  96 SE3       29.98R
SPRINGFIELD    CLOUDY    68  65  90 S7        29.88F
TAYLORVILLE    LGT RAIN  66  64  95 S7        29.89R
$$

...REGIONAL REPORTS...


CITY           SKY/WX    TMP DP  RH WIND       PRES   REMARKS
CHICAGO O`HARE CLOUDY    68  64  87 S8        29.90R
KANKAKEE       CLOUDY    65  62  89 CALM      29.92S
MOLINE         CLOUDY    64  61  90 CALM      29.80F
MOUNT STERLING CLOUDY    64  63  97 SE6       29.85F
MOUNT VERNON   CLOUDY    64  59  82 CALM      29.96R
PITTSFIELD     PTCLDY    65  65  97 CALM      29.87F
QUINCY         CLOUDY    65  62  90 SE9       29.84S
ROCKFORD       CLOUDY    72  67  84 W8        29.85F
$$


CITY           SKY/WX    TMP DP  RH WIND       PRES   REMARKS
BURLINGTON     CLOUDY    63  62  97 SE7       29.83R
CEDAR RAPIDS   MOCLDY    62  62 100 NE7       29.80F
DES MOINES     LGT RAIN  64  59  83 N3        29.81R
KIRKSVILLE     CLOUDY    62  61  96 SE9       29.80F
OTTUMWA        PTCLDY    60  59  96 SE7       29.79F
ST LOUIS       LGT RAIN  69  65  86 S9        29.90R
$$


CITY           SKY/WX    TMP DP  RH WIND       PRES   REMARKS
TERRE HAUTE    CLOUDY    66  64  93 S3        29.97R
EVANSVILLE     CLOUDY    66  62  87 E3        29.96S
INDIANAPOLIS   CLOUDY    65  62  90 S7        29.97R
LAFAYETTE      CLOUDY    65  61  87 S3        29.95R
MADISON        CLOUDY    60  57  89 CALM      29.85F
MILWAUKEE      MOCLDY    69  64  84 SW6       29.87F
$$






USA.gov is the U.S. government's official web portal to all federal, state and local government web resources and services.